TimeCST,TemperatureF,Dew PointF,Humidity,Sea Level PressureIn,VisibilityMPH,Wind Direction,Wind SpeedMPH,Gust SpeedMPH,PrecipitationIn,Events,Conditions,WindDirDegrees,DateUTC
12:35 AM,35.6,33.8,93,30.32,7.0,Calm,Calm,-,N/A,,Clear,0,2013-01-06 06:35:00
12:55 AM,35.6,33.8,93,30.31,3.0,Calm,Calm,-,N/A,,Clear,0,2013-01-06 06:55:00
1:15 AM,33.8,33.8,100,30.31,4.0,Calm,Calm,-,N/A,,Clear,0,2013-01-06 07:15:00
1:35 AM,35.6,33.8,93,30.31,7.0,Calm,Calm,-,N/A,,Clear,0,2013-01-06 07:35:00
1:55 AM,33.8,33.8,100,30.31,7.0,WNW,3.5,-,N/A,,Clear,300,2013-01-06 07:55:00
2:15 AM,33.8,33.8,100,30.31,7.0,Calm,Calm,-,N/A,,Clear,0,2013-01-06 08:15:00
2:55 AM,33.8,33.8,100,30.32,5.0,Calm,Calm,-,N/A,,Clear,0,2013-01-06 08:55:00
3:15 AM,33.8,32.0,93,30.31,7.0,Calm,Calm,-,N/A,,Clear,0,2013-01-06 09:15:00
3:35 AM,33.8,33.8,100,30.31,7.0,Calm,Calm,-,N/A,,Clear,0,2013-01-06 09:35:00
3:55 AM,32.0,32.0,100,30.31,3.0,Calm,Calm,-,N/A,,Clear,0,2013-01-06 09:55:00
4:15 AM,32.0,32.0,100,30.31,7.0,Calm,Calm,-,N/A,,Clear,0,2013-01-06 10:15:00
4:55 AM,32.0,32.0,100,30.32,5.0,Calm,Calm,-,N/A,,Clear,0,2013-01-06 10:55:00
5:15 AM,32.0,30.2,93,30.32,5.0,Calm,Calm,-,N/A,,Clear,0,2013-01-06 11:15:00
5:55 AM,32.0,32.0,100,30.32,5.0,West,3.5,-,N/A,,Clear,280,2013-01-06 11:55:00
6:15 AM,32.0,32.0,100,30.33,5.0,NW,3.5,-,N/A,,Clear,310,2013-01-06 12:15:00
6:35 AM,33.8,32.0,93,30.33,5.0,WNW,5.8,-,N/A,,Clear,300,2013-01-06 12:35:00
6:55 AM,32.0,32.0,100,30.34,5.0,WNW,4.6,-,N/A,,Clear,290,2013-01-06 12:55:00
7:15 AM,32.0,32.0,100,30.34,5.0,NW,5.8,-,N/A,,Clear,310,2013-01-06 13:15:00
7:35 AM,33.8,32.0,93,30.34,4.0,NW,6.9,-,N/A,,Clear,310,2013-01-06 13:35:00
7:55 AM,33.8,32.0,93,30.35,5.0,NW,9.2,-,N/A,,Clear,310,2013-01-06 13:55:00
8:15 AM,35.6,33.8,93,30.36,5.0,NW,8.1,-,N/A,,Clear,310,2013-01-06 14:15:00
8:35 AM,37.4,35.6,93,30.36,5.0,NW,6.9,-,N/A,,Clear,310,2013-01-06 14:35:00
8:55 AM,41.0,37.4,87,30.36,7.0,NW,5.8,-,N/A,,Clear,310,2013-01-06 14:55:00
9:15 AM,42.8,39.2,87,30.36,10.0,NW,5.8,-,N/A,,Clear,320,2013-01-06 15:15:00
9:35 AM,46.4,39.2,76,30.38,10.0,NNW,6.9,-,N/A,,Clear,330,2013-01-06 15:35:00
9:55 AM,50.0,37.4,62,30.38,10.0,North,11.5,-,N/A,,Clear,350,2013-01-06 15:55:00
10:15 AM,51.8,33.8,50,30.39,10.0,NNE,10.4,-,N/A,,Clear,20,2013-01-06 16:15:00
10:35 AM,53.6,32.0,44,30.39,10.0,North,12.7,19.6,N/A,,Clear,10,2013-01-06 16:35:00
10:55 AM,53.6,30.2,41,30.39,10.0,NNE,11.5,20.7,N/A,,Clear,30,2013-01-06 16:55:00
11:15 AM,55.4,28.4,36,30.39,10.0,NNE,11.5,-,N/A,,Clear,20,2013-01-06 17:15:00
11:35 AM,57.2,28.4,33,30.37,10.0,North,10.4,17.3,N/A,,Clear,10,2013-01-06 17:35:00
11:55 AM,59.0,26.6,29,30.36,10.0,North,10.4,-,N/A,,Clear,10,2013-01-06 17:55:00
12:15 PM,59.0,26.6,29,30.36,10.0,North,11.5,16.1,N/A,,Clear,360,2013-01-06 18:15:00
12:35 PM,60.8,26.6,27,30.34,10.0,North,8.1,-,N/A,,Clear,360,2013-01-06 18:35:00
12:55 PM,60.8,26.6,27,30.33,10.0,North,8.1,-,N/A,,Clear,360,2013-01-06 18:55:00
1:15 PM,60.8,23.0,23,30.31,10.0,NNW,6.9,17.3,N/A,,Clear,340,2013-01-06 19:15:00
1:35 PM,62.6,26.6,26,30.30,10.0,North,8.1,16.1,N/A,,Clear,350,2013-01-06 19:35:00
1:55 PM,62.6,24.8,24,30.29,10.0,North,10.4,-,N/A,,Clear,360,2013-01-06 19:55:00
2:15 PM,62.6,24.8,24,30.29,7.0,NNE,10.4,-,N/A,,Clear,20,2013-01-06 20:15:00
2:35 PM,62.6,24.8,24,30.28,10.0,NNE,10.4,-,N/A,,Clear,30,2013-01-06 20:35:00
2:55 PM,62.6,24.8,24,30.28,10.0,NE,4.6,-,N/A,,Clear,40,2013-01-06 20:55:00
3:15 PM,62.6,23.0,22,30.27,10.0,NE,5.8,-,N/A,,Clear,40,2013-01-06 21:15:00
3:35 PM,62.6,23.0,22,30.28,10.0,NNE,6.9,-,N/A,,Clear,30,2013-01-06 21:35:00
3:55 PM,62.6,23.0,22,30.28,10.0,North,4.6,-,N/A,,Clear,360,2013-01-06 21:55:00
4:15 PM,62.6,24.8,24,30.28,10.0,North,8.1,-,N/A,,Clear,10,2013-01-06 22:15:00
4:35 PM,62.6,24.8,24,30.28,10.0,NE,9.2,-,N/A,,Clear,40,2013-01-06 22:35:00
4:55 PM,60.8,26.6,27,30.29,10.0,NNE,5.8,-,N/A,,Clear,20,2013-01-06 22:55:00
5:15 PM,60.8,26.6,27,30.29,7.0,NE,6.9,-,N/A,,Clear,40,2013-01-06 23:15:00
5:35 PM,59.0,28.4,31,30.29,10.0,NE,4.6,-,N/A,,Clear,40,2013-01-06 23:35:00
5:55 PM,55.4,30.2,38,30.30,10.0,ENE,6.9,-,N/A,,Clear,60,2013-01-06 23:55:00
6:15 PM,53.6,30.2,41,30.31,10.0,NE,4.6,-,N/A,,Clear,50,2013-01-07 00:15:00
6:55 PM,51.8,30.2,44,30.31,10.0,NE,3.5,-,N/A,,Clear,50,2013-01-07 00:55:00
7:15 PM,50.0,30.2,47,30.31,10.0,Calm,Calm,-,N/A,,Clear,0,2013-01-07 01:15:00
7:35 PM,46.4,30.2,53,30.33,10.0,Calm,Calm,-,N/A,,Clear,0,2013-01-07 01:35:00
7:55 PM,42.8,32.0,66,30.33,10.0,NNE,3.5,-,N/A,,Clear,30,2013-01-07 01:55:00
8:15 PM,44.6,32.0,61,30.33,10.0,NNE,4.6,-,N/A,,Clear,30,2013-01-07 02:15:00
8:35 PM,46.4,30.2,53,30.33,10.0,North,4.6,-,N/A,,Clear,10,2013-01-07 02:35:00
9:15 PM,44.6,30.2,57,30.33,10.0,NNE,4.6,-,N/A,,Clear,20,2013-01-07 03:15:00
9:35 PM,44.6,30.2,57,30.34,10.0,NNE,4.6,-,N/A,,Clear,20,2013-01-07 03:35:00
9:55 PM,42.8,30.2,61,30.34,10.0,Calm,Calm,-,N/A,,Clear,0,2013-01-07 03:55:00
10:15 PM,42.8,30.2,61,30.34,10.0,Calm,Calm,-,N/A,,Clear,0,2013-01-07 04:15:00
10:35 PM,41.0,32.0,70,30.34,10.0,North,3.5,-,N/A,,Clear,10,2013-01-07 04:35:00
10:55 PM,41.0,30.2,65,30.34,10.0,Calm,Calm,-,N/A,,Clear,0,2013-01-07 04:55:00
11:15 PM,41.0,30.2,65,30.33,10.0,North,3.5,-,N/A,,Clear,10,2013-01-07 05:15:00
11:35 PM,41.0,32.0,70,30.33,10.0,Calm,Calm,-,N/A,,Clear,0,2013-01-07 05:35:00